date,time,DOY,Ta_1_1_1,RH_1_1_1,LWin_1_1_1,LWout_1_1_1,SWin_1_1_1,SWout_1_1_1,PPFD_1_1_1,SWC_1_1_1,Ts_1_1_1
[yyyy-mm-dd],[HH:MM],[ddd.ddd],[K],[%],[W+1m-2],[W+1m-2],[W+1m-2],[W+1m-2],[µmol+1m-2s-1],[m+3m-3],[K]
2013-07-07,00:30,188.020,293.73333333333335,86.123000000000005,-7.9829999999999979,-9999.0,0.97966666666666691,-0.97466666666666657,0.0000000000000000,-9999.0,273.15999999999991
2013-07-07,01:00,188.041,293.68900000000002,86.615333333333353,-9.1116666666666681,-9999.0,0.45699999999999996,-0.40566666666666668,0.0000000000000000,-9999.0,273.15999999999991
2013-07-07,01:30,188.062,293.49466666666666,89.948333333333309,-8.8316000000000017,-9999.0,0.28499999999999998,-0.90699999999999992,0.0000000000000000,-9999.0,273.15999999999991
2013-07-07,02:00,188.083,292.82800000000009,93.726333333333343,-8.3986666666666654,-9999.0,-0.27899999999999997,-0.82199999999999995,0.0000000000000000,-9999.0,273.15999999999991
2013-07-07,02:30,188.104,292.22766666666666,96.314999999999984,-8.5469999999999988,-9999.0,-0.48166666666666669,-1.2719999999999998,1.33333333333333329E-003,-9999.0,273.15999999999991
2013-07-07,03:00,188.124,291.98566666666670,96.508666666666656,-8.4556666666666658,-6.8174999999999999,-0.28366666666666673,-1.5566666666666669,0.0000000000000000,-9999.0,273.15999999999991
2013-07-07,03:30,188.145,291.95900000000000,97.359333333333339,-8.1119999999999983,-3.4676666666666662,6.66666666666672824E-004,-1.4890000000000003,0.0000000000000000,-9999.0,273.15999999999991
2013-07-07,04:00,188.166,292.10566666666671,96.587333333333348,-5.8653333333333340,-2.3439999999999999,0.84133333333333349,-0.95999999999999985,0.0000000000000000,-9999.0,273.15999999999991
2013-07-07,04:30,188.187,292.09366666666671,98.155666666666633,-5.6323333333333334,-1.6673333333333331,0.37000000000000016,-0.51933333333333342,0.14433333333333334,-9999.0,273.15999999999991
2013-07-07,05:00,188.208,292.29533333333336,98.527666666666647,-6.1006666666666671,-1.3376666666666663,0.56733333333333336,-0.34733333333333344,0.91833333333333345,-9999.0,273.15999999999991
2013-07-07,05:30,188.229,292.12900000000002,98.596333333333305,-4.8833333333333320,-2.2076666666666664,0.17000000000000001,-0.10700000000000001,1.3810000000000000,-9999.0,273.15999999999991
2013-07-07,06:00,188.249,291.36633333333339,98.750000000000000,-3.6339999999999990,-1.9703333333333333,0.21333333333333337,1.1366666666666669,4.9216666666666669,-9999.0,273.15999999999991
2013-07-07,06:30,188.270,291.49766666666670,99.185666666666691,-5.7316666666666656,-1.4153333333333333,4.50000000000000122E-002,1.7926666666666666,6.9456666666666660,-9999.0,273.15999999999991
2013-07-07,07:00,188.291,291.30066666666676,99.579333333333309,-5.2349999999999985,-1.3746666666666665,0.14000000000000001,3.3526666666666669,12.081999999999999,-9999.0,273.15999999999991
2013-07-07,07:30,188.312,291.09333333333342,99.876666666666679,-4.4340000000000002,-1.8250000000000000,0.52833333333333332,5.9620000000000006,18.761666666666667,-9999.0,273.15999999999991
2013-07-07,08:00,188.333,290.95699999999999,99.988000000000014,-3.8983333333333330,-1.7416666666666671,1.4466666666666665,11.174000000000001,31.289666666666673,-9999.0,273.15999999999991
2013-07-07,08:30,188.354,291.16966666666673,99.811538461538447,-3.6189999999999993,-2.5786666666666664,10.807666666666668,65.939666666666668,139.50066666666666,-9999.0,273.15999999999991
2013-07-07,09:00,188.374,291.70466666666670,96.962666666666692,-4.1273333333333335,-4.7849999999999993,37.742333333333328,229.19400000000002,470.38700000000006,-9999.0,273.15999999999991
2013-07-07,09:30,188.395,292.31733333333335,93.725666666666669,-3.9723333333333342,-7.7599999999999998,70.102000000000004,436.10833333333335,882.61766666666676,-9999.0,273.15999999999991
2013-07-07,10:00,188.416,293.63133333333320,90.101666666666674,-2.8063333333333338,-9999.0,99.536666666666662,624.11566666666670,1261.3186666666668,-9999.0,273.15999999999991
2013-07-07,10:30,188.437,295.26100000000008,85.099666666666678,-0.99933333333333352,-9999.0,133.40466666666666,845.78133333333369,1730.5253333333337,-9999.0,273.15999999999991
2013-07-07,11:00,188.458,296.59200000000004,81.557999999999993,-1.5013333333333334,-9999.0,137.46900000000005,877.62266666666676,1809.5393333333332,-9999.0,273.15999999999991
2013-07-07,11:30,188.479,297.84599999999995,74.859999999999985,-6.2970370370370370,-9999.0,133.89699999999999,874.86666666666667,1827.2880000000002,-9999.0,273.15999999999991
2013-07-07,12:00,188.499,298.85966666666667,67.367999999999995,-8.4466666666666654,-9999.0,136.71433333333331,895.09133333333330,1864.0453333333337,-9999.0,273.15999999999991
2013-07-07,12:30,188.520,299.04800000000000,63.939666666666660,-7.9542857142857164,-9999.0,138.44333333333330,911.76866666666660,1895.1976666666667,-9999.0,273.15999999999991
2013-07-07,13:00,188.541,299.29633333333345,61.929333333333325,-9.1838095238095256,-9999.0,136.50399999999996,899.16066666666666,1872.7463333333333,-9999.0,273.15999999999991
2013-07-07,13:30,188.562,299.45933333333335,59.730333333333348,-9.3849999999999998,-9999.0,135.21766666666670,898.85466666666639,1874.3623333333333,-9999.0,273.15999999999991
2013-07-07,14:00,188.583,299.68966666666671,59.334666666666656,-9.5288888888888881,-9999.0,114.56199999999998,750.31199999999990,1567.8920000000003,-9999.0,273.15999999999991
2013-07-07,14:30,188.604,299.85900000000004,59.650666666666659,-9.7799999999999994,-9999.0,96.863333333333330,611.07933333333335,1258.8003333333334,-9999.0,273.15999999999991
2013-07-07,15:00,188.624,299.87433333333331,59.382666666666658,-9999.0,-9999.0,90.768000000000015,571.10466666666662,1180.3473333333334,-9999.0,273.15999999999991
2013-07-07,15:30,188.645,300.02866666666677,59.418666666666660,-9999.0,-9999.0,86.042666666666676,541.67633333333333,1139.3763333333334,-9999.0,273.15999999999991
2013-07-07,16:00,188.666,299.81066666666669,60.152000000000008,-9999.0,-9999.0,82.939000000000007,504.04933333333327,1036.3963333333334,-9999.0,273.15999999999991
2013-07-07,16:30,188.687,299.78900000000004,61.677333333333344,-9999.0,-9999.0,72.929333333333332,438.81299999999999,912.70266666666635,-9999.0,273.15999999999991
2013-07-07,17:00,188.708,299.83600000000007,62.815000000000005,-9999.0,-9999.0,56.275333333333343,339.52366666666666,708.63199999999995,-9999.0,273.15999999999991
2013-07-07,17:30,188.729,299.34666666666664,64.887666666666661,-9999.0,-9999.0,39.634000000000000,230.37633333333332,464.75066666666669,-9999.0,273.15999999999991
2013-07-07,18:00,188.749,299.43833333333339,65.317999999999998,-9999.0,-9999.0,19.968000000000004,128.60900000000001,266.47633333333334,-9999.0,273.15999999999991
2013-07-07,18:30,188.770,298.13666666666666,76.643333333333345,-9999.0,-9999.0,6.0246666666666648,50.551333333333332,109.23800000000001,-9999.0,273.15999999999991
2013-07-07,19:00,188.791,297.10466666666667,86.127666666666670,-9999.0,-9999.0,3.5146666666666673,27.754333333333328,63.603333333333339,-9999.0,273.15999999999991
2013-07-07,19:30,188.812,296.80200000000002,87.719666666666640,-9999.0,-9999.0,1.3873333333333338,11.635666666666660,27.674666666666660,-9999.0,273.15999999999991
2013-07-07,20:00,188.833,296.33700000000010,89.674999999999983,-9.5579999999999998,-9999.0,-1.39999999999999934E-002,-1.9803333333333333,4.3356666666666674,-9999.0,273.15999999999991
2013-07-07,20:30,188.854,295.90966666666662,91.053333333333342,-9999.0,-9999.0,-0.64866666666666661,-2.3613333333333340,0.24000000000000002,-9999.0,273.15999999999991
2013-07-07,21:00,188.874,295.56900000000002,91.950000000000017,-9999.0,-9999.0,-0.92200000000000015,-2.0909999999999997,4.86666666666666983E-002,-9999.0,273.15999999999991
2013-07-07,21:30,188.895,295.37700000000007,91.735666666666660,-9.9399999999999995,-9999.0,-0.85000000000000031,-1.8033333333333332,3.80000000000000199E-002,-9999.0,273.15999999999991
2013-07-07,22:00,188.916,294.87666666666678,93.761666666666642,-7.2614999999999998,-4.1258333333333344,-9.99999999999949063E-004,-2.3410000000000006,2.96666666666666780E-002,-9999.0,273.15999999999991
2013-07-07,22:30,188.937,294.26866666666672,98.168333333333365,-6.7763333333333344,-3.0373333333333332,0.41000000000000009,-1.2469999999999997,3.80000000000000129E-002,-9999.0,273.15999999999991
2013-07-07,23:00,188.958,294.02833333333336,98.398333333333326,-8.1006666666666653,-2.5686666666666667,0.28100000000000003,-1.1129999999999998,4.10000000000000225E-002,-9999.0,273.15999999999991
2013-07-07,23:30,188.979,293.94766666666669,98.434666666666686,-6.9390000000000009,-2.5169999999999999,0.30999999999999994,-0.97833333333333339,3.16666666666666832E-002,-9999.0,273.15999999999991
2013-07-08,00:00,189.000,292.58733333333345,94.799333333333337,-3.1373333333333333,-2.8003333333333340,2.1819999999999999,-1.0710000000000000,3.76666666666666886E-002,-9999.0,273.15999999999991
